Overview Statistics Trail Chart Weather Telemetry Raw packets
 

This is the latest recevied weather packets stored in our database for station/object KD4EED. If no packets are shown the sender has not sent any weather packets the latest 10 day(s).

<< 57 58 59 60 61 62 63 >>
Time Temp. Humidity Pressure Rain* Wind** Luminosity Snow
1788281950 22.22° C 73% 1013.4 hPa - - 65 W/m² -
1788281649 22.22° C 72% 1013.3 hPa - - 95 W/m² -
1788281346 21.67° C 73% 1013.3 hPa - - 89 W/m² -
1788281047 21.67° C 73% 1013.4 hPa - - 60 W/m² -
1788280741 21.67° C 74% 1013.4 hPa - - 58 W/m² -
1788280436 21.11° C 74% 1013.3 hPa - - 61 W/m² -
1788280131 21.11° C 74% 1013.5 hPa - - 59 W/m² -
1788279830 21.11° C 76% 1013.4 hPa - - 60 W/m² -
1788279529 20.56° C 77% 1013.4 hPa - - 61 W/m² -
1788279224 20.56° C 77% 1013.4 hPa - - 53 W/m² -
1788278919 20.56° C 77% 1013.3 hPa - - 73 W/m² -
1788278616 20.56° C 78% 1013.5 hPa - - 104 W/m² -
1788278314 20° C 79% 1013.5 hPa - - 98 W/m² -
1788278009 20° C 80% 1013.5 hPa - - 73 W/m² -
1788277706 20° C 83% 1013.3 hPa - - 76 W/m² -
1788277405 19.44° C 83% 1013.5 hPa - - 84 W/m² -
1788277100 18.89° C 87% 1013.3 hPa - - 95 W/m² -
1788276800 18.89° C 91% 1013.4 hPa - - 96 W/m² -
1788276498 18.33° C 93% 1013.4 hPa - - 93 W/m² -
1788276198 17.78° C 95% 1013.5 hPa - - 76 W/m² -
1788275893 17.78° C 96% 1013.4 hPa - - 71 W/m² -
1788275588 17.22° C 96% 1013.1 hPa - - 71 W/m² -
1788275288 17.22° C 96% 1013.1 hPa - - 64 W/m² -
1788274985 16.67° C 96% 1013.1 hPa - - 59 W/m² -
1788274684 16.67° C 96% 1012.9 hPa - - 56 W/m² -

* Rain since midnight (hover to see other rain measurements)
** Current wind speed in m/s (hover to see current wind gust speed)